This demonstration page uses our WeatherBlox Daily Observations layout. Learn more.

Left ArrowRight Arrow

Hourly Observations for January 24, 2016

Temp ( °F °C ) Dew Point ( °F °C ) Humidity (%) Winds ( mph kmh ) Pressure ( in mb ) Visibility ( mi km ) Precip ( " mm )
12:10 am 00:10 Windy with Snow Likely 31 -0.6 26 -3.3 82 82 NNW 21 33 29.74 1007 3 5 0.00 0.03
12:59 am 00:59 Windy with Snow Likely 31 -0.6 26 -3.3 82 82 NNW 23 37 29.77 1008 4 6 0.00 0.03
1:59 am 01:59 Cloudy 31 -0.6 24 -4.4 76 76 NNW 21 33 29.80 1009 10 16 0.00 0.03
2:59 am 02:59 Cloudy 31 -0.6 24 -4.4 76 76 NNW 22 35 29.83 1010 10 16 0.00 0.00
3:38 am 03:38 Cloudy 31 -0.6 24 -4.4 76 76 NNW 17 28 29.85 1011 10 16 0.00 0.00
3:59 am 03:59 Cloudy 31 -0.6 23 -5 72 72 NNW 16 26 29.86 1011 10 16 0.00 0.00
4:59 am 04:59 Cloudy 32 0 22 -5.6 66 66 NNW 20 31 29.89 1012 10 16 0.00 0.00
5:59 am 05:59 Cloudy 32 0 21 -6.1 64 64 NNW 16 26 29.93 1013 10 16 0.00 0.00
6:59 am 06:59 Mostly Cloudy 31 -0.6 19 -7.2 61 61 NNW 17 28 29.96 1015 10 16 0.00 0.00
7:59 am 07:59 Mostly Sunny 30 -1.1 18 -7.8 61 61 NNW 18 30 30.01 1016 10 16 0.00 0.00
8:59 am 08:59 Sunny 31 -0.6 17 -8.3 56 56 NNW 18 30 30.04 1017 10 16 0.00 0.00
9:59 am 09:59 Sunny 32 0 17 -8.3 54 54 NNW 15 24 30.09 1019 10 16 0.00 0.00
10:59 am 10:59 Sunny 34 1.1 18 -7.8 52 52 NNW 14 22 30.09 1019 10 16 0.00 0.00
11:59 am 11:59 Sunny 37 2.8 21 -6.1 52 52 NW 12 19 30.09 1019 10 16 0.00 0.00
12:59 pm 12:59 Sunny 38 3.3 20 -6.7 48 48 NW 8 13 30.07 1018 10 16 0.00 0.00
1:59 pm 13:59 Sunny 39 3.9 23 -5 53 53 W 9 15 30.07 1018 10 16 0.00 0.00
2:59 pm 14:59 Mostly Sunny 39 3.9 22 -5.6 50 50 W 13 20 30.09 1019 10 16 0.00 0.00
3:59 pm 15:59 Mostly Sunny 39 3.9 21 -6.1 48 48 W 10 17 30.10 1019 10 16 0.00 0.00
4:59 pm 16:59 Mostly Sunny 37 2.8 20 -6.7 50 50 WNW 9 15 30.12 1020 10 16 0.00 0.00
5:59 pm 17:59 Mostly Clear 36 2.2 20 -6.7 52 52 W 6 9 30.14 1021 10 16 0.00 0.00
6:59 pm 18:59 Mostly Clear 33 0.6 23 -5 66 66 W 3 6 30.15 1021 10 16 0.00 0.00
7:59 pm 19:59 Mostly Clear 30 -1.1 23 -5 75 75 WSW 3 6 30.17 1022 10 16 0.00 0.00
8:59 pm 20:59 Mostly Clear 30 -1.1 24 -4.4 79 79 Calm 30.20 1023 10 16 0.00 0.00
9:59 pm 21:59 Mostly Clear 28 -2.2 23 -5 81 81 Calm 30.20 1023 10 16 0.00 0.00
10:59 pm 22:59 Clear 27 -2.8 22 -5.6 81 81 Calm 30.22 1023 10 16 0.00 0.00
11:59 pm 23:59 Clear 27 -2.8 23 -5 85 85 Calm 30.23 1024 10 16 0.00 0.00

Powered by AerisWeather